Weather History for Cedar City, UT

Change the Weather History Date:

Friday, September 27, 2013

  Actual Average Record
Temperature  
Mean Temperature 43 °F 57 °F  
Max Temperature 57 °F 74 °F 91 °F (2010)
Min Temperature 28 °F 40 °F 28 °F (2013)
Degree Days  
Heating Degree Days 22 8  
Month to date heating degree days 126 108  
Since 1 July heating degree days 129 117  
Cooling Degree Days 0 0  
Month to date cooling degree days 35 36  
Year to date cooling degree days 667 585  
Moisture  
Dew Point 27 °F    
Average Humidity 60    
Maximum Humidity 92    
Minimum Humidity 27    
Precipitation  
Precipitation 0.00 in 0.02 in 1.10 in (2014)
Month to date precipitation 1.79 0.58  
Year to date precipitation 13.04 8.12  
Sea Level Pressure  
Sea Level Pressure 30.01 in    
Wind  
Wind Speed 5 mph (NNE)    
Max Wind Speed 16 mph    
Max Gust Speed 21 mph    
Visibility 10 miles    
Events      
T = Trace of Precipitation, MM = Missing Value Source: NWS Daily Summary

Daily Weather History Graph

Daily Weather History Graph

Search for Another Location

Airport:

Trip Planner

Search our weather history database for the weather conditions in past years. The results will help you decide how hot, cold, wet, or windy it might be!

Date:

Astronomy

Sep. 27, 2013 Rise Set
Actual Time 7:24 AM MDT 7:21 PM MDT
Civil Twilight 6:58 AM MDT 7:47 PM MDT
Nautical Twilight 6:28 AM MDT 8:17 PM MDT
Astronomical Twilight 5:57 AM MDT 8:48 PM MDT
Moon 12:29 AM MDT (9/27) 2:56 PM MDT (9/27)
Length of Visible Light 12h 48m
Length of Day
11h 56m
Last Quarter, 44% of the Moon is Illuminated
Sep 27
Last Quarter
Oct 4
New
Oct 11
First Quarter
Oct 18
Full
Oct 26
Last Quarter

Hourly Weather History & Observations

Time (MDT) Temp. Windchill Dew Point Humidity Pressure Visibility Wind Dir Wind Speed Gust Speed Precip Events Conditions
12:53 AM 37.0 °F 33.3 °F 30.0 °F 76% 29.83 in 10.0 mi West 4.6 mph - N/A   Overcast
1:53 AM 37.9 °F - 30.0 °F 73% 29.83 in 10.0 mi Calm Calm - N/A   Mostly Cloudy
2:53 AM 33.1 °F 27.7 °F 28.9 °F 85% 29.86 in 10.0 mi WNW 5.8 mph - N/A   Clear
3:53 AM 35.1 °F - 30.0 °F 82% 29.86 in 10.0 mi Calm Calm - N/A   Clear
4:53 AM 34.0 °F - 30.0 °F 85% 29.89 in 10.0 mi Calm Calm - N/A   Overcast
5:53 AM 30.9 °F 26.2 °F 28.0 °F 89% 29.94 in 10.0 mi North 4.6 mph - N/A   Clear
6:53 AM 30.0 °F - 28.0 °F 92% 29.98 in 10.0 mi Calm Calm - N/A   Partly Cloudy
7:53 AM 30.0 °F - 27.0 °F 88% 30.02 in 10.0 mi Calm Calm - N/A   Mostly Cloudy
8:53 AM 37.0 °F - 33.1 °F 86% 30.01 in 10.0 mi Calm Calm - N/A   Clear
9:53 AM 43.0 °F - 33.1 °F 68% 30.01 in 10.0 mi Calm Calm - N/A   Clear
10:53 AM 48.0 °F - 30.0 °F 50% 30.01 in 10.0 mi North 9.2 mph - N/A   Clear
11:53 AM 50.0 °F - 28.0 °F 43% 30.02 in 10.0 mi NNE 11.5 mph - N/A   Partly Cloudy
12:53 PM 52.0 °F - 25.0 °F 35% 30.03 in 10.0 mi NNE 12.7 mph 16.1 mph N/A   Scattered Clouds
1:53 PM 54.0 °F - 26.1 °F 34% 30.03 in 10.0 mi NE 6.9 mph - N/A   Mostly Cloudy
2:53 PM 55.0 °F - 24.1 °F 30% 30.04 in 10.0 mi NE 9.2 mph - N/A   Partly Cloudy
3:53 PM 55.9 °F - 23.0 °F 28% 30.04 in 10.0 mi NE 4.6 mph - N/A   Clear
4:53 PM 55.9 °F - 23.0 °F 28% 30.05 in 10.0 mi North 6.9 mph - N/A   Partly Cloudy
5:53 PM 55.0 °F - 21.9 °F 28% 30.07 in 10.0 mi NNE 6.9 mph 19.6 mph N/A   Clear
6:53 PM 53.1 °F - 23.0 °F 31% 30.09 in 10.0 mi NNE 8.1 mph - N/A   Clear
7:53 PM 44.1 °F 40.8 °F 24.1 °F 45% 30.14 in 10.0 mi NE 5.8 mph - N/A   Clear
8:53 PM 41.0 °F 37.1 °F 24.1 °F 51% 30.15 in 10.0 mi NE 5.8 mph - N/A   Clear
9:53 PM 43.0 °F - 21.9 °F 43% 30.13 in 10.0 mi Calm Calm - N/A   Clear
10:53 PM 36.0 °F 33.3 °F 24.1 °F 62% 30.15 in 10.0 mi SSW 3.5 mph - N/A   Clear
11:53 PM 35.1 °F - 23.0 °F 61% 30.17 in 10.0 mi Calm Calm - N/A   Clear